{"data":{"norad_id":52117,"intl_designator":"2022-029AF","name":"STARLINK-3738","alt_names":[],"object_type":"PAYLOAD","status":"ACTIVE","operator":null,"country":"US","launch_date":"2022-03-19","launch_site_code":"AFETR","launch_vehicle":null,"mission":null,"orbit_class":"UNKNOWN","rcs_meters":null,"size_class":null,"mass_kg":null,"dimensions":null,"purposes":["comms"],"wikipedia_slug":null,"has_3d_model":false,"image_url":null,"decayed_at":null,"tle_current":{"epoch":"2026-05-25T02:24:45.727200Z","epoch_age_seconds":69913,"freshness":"FRESH","line1":"1 52117U 22029AF  26145.10052925 -.00004341  00000+0 -25467-3 0  9993","line2":"2 52117  53.2127  96.0983 0001244  70.9946 289.1181 15.08856472232338","mean_motion":15.08856472,"eccentricity":0.0001244,"inclination_deg":53.2127,"raan_deg":96.0983,"arg_perigee_deg":70.9946,"mean_anomaly_deg":289.1181,"bstar":-0.00025467,"rev_number":23233,"period_min":95.436512797753,"perigee_km":538.83246305075,"apogee_km":540.55361916498,"semimajor_km":6917.8300411079,"source":"CELESTRAK","updated_at":"2026-05-25T13:38:17.074566Z"}}}